RH
8 9 9 9 10 10 11 11 12 12 13 14 15 17 19 20 19 18 18 18 19 19 19 19 19 18 18 18 18 17 17 16 16 16 15 14 14 13 13 12 12 11 9 8 7 8 8 8 8 7 6 5
8 8 8 8 8 8 8 9 9 9 9 10 10 11 12 14 16 16 16 15 16 17 17 18 18 18 19 18 18 18 18 18 18 18 17 17 16 14 13 12 12 12 10 8 7 7 7 7 6 6 5 5
7 7 7 7 7 7 8 7 8 8 8 8 8 9 9 9 10 12 12 12 13 13 13 14 15 16 17 18 18 18 18 18 18 18 19 18 18 17 15 14 13 12 11 9 8 7 7 7 6 5 5 4
5 5 5 5 6 6 6 6 7 7 7 8 8 8 8 8 8 9 9 9 10 10 10 10 11 11 13 14 14 15 16 17 17 17 18 18 18 18 17 16 14 14 12 10 9 8 7 7 6 5 4 4
5 5 5 5 5 5 5 5 5 5 6 6 6 7 7 7 7 8 8 8 8 8 8 8 9 9 9 10 10 11 12 13 13 14 16 17 17 17 17 17 16 15 15 12 9 8 7 7 7 5 4 4
8 8 8 8 7 7 6 6 6 5 5 5 5 5 5 6 6 6 6 7 7 7 8 8 8 8 8 8 8 8 9 9 10 10 12 13 15 16 16 16 16 16 16 14 10 8 7 6 7 6 5 4
13 13 12 11 11 10 9 9 8 8 7 7 6 6 5 5 5 5 5 5 6 6 6 7 7 7 7 7 7 8 8 8 8 8 8 10 11 13 14 14 15 14 15 15 10 8 7 6 7 6 5 5
16 15 15 15 14 13 13 12 11 10 10 9 9 8 7 6 6 5 5 5 5 5 5 6 6 6 6 7 7 7 7 7 8 8 8 8 8 10 11 12 12 13 14 14 10 7 7 6 6 6 5 4
17 16 16 15 15 14 14 13 13 12 11 11 11 10 9 9 8 7 7 6 6 6 5 6 5 6 6 6 6 6 6 7 7 7 7 8 8 8 8 9 9 10 12 12 9 7 7 6 6 5 4 4
17 17 16 16 15 15 15 14 14 13 12 12 11 11 11 10 10 9 9 8 8 7 6 6 6 6 6 6 6 6 6 6 6 6 7 7 7 8 8 8 8 8 9 10 8 6 7 6 6 5 4 4
18 17 17 17 17 16 16 16 15 15 14 14 13 12 12 11 11 10 10 9 9 8 7 7 7 6 6 6 6 6 6 6 6 5 6 6 6 7 7 8 8 7 7 7 6 6 7 6 6 5 5 4
20 19 19 18 18 18 18 18 17 17 17 16 15 15 14 13 12 12 11 11 10 9 9 8 8 7 7 6 6 6 7 6 6 6 6 5 6 6 6 7 7 8 7 6 5 5 6 6 6 6 5 5
24 23 23 22 22 21 20 20 20 19 19 19 18 17 17 16 15 14 13 12 11 11 10 10 9 8 8 7 7 7 7 7 7 7 6 6 6 5 5 6 6 7 7 8 7 5 6 6 6 6 6 5
30 29 29 28 27 26 26 25 24 23 22 22 21 20 19 19 18 17 16 15 14 13 12 11 10 10 9 9 8 8 7 7 7 7 7 7 6 6 6 5 5 6 6 7 8 7 6 6 6 6 6 6
37 35 34 33 33 32 31 30 29 28 27 26 25 24 23 22 21 20 19 18 17 16 15 13 12 11 11 10 10 9 9 8 7 7 7 7 7 7 6 6 6 5 5 6 7 8 8 7 6 6 6 6
41 40 39 38 38 37 36 36 34 33 32 31 30 28 27 25 24 23 22 21 20 19 18 17 15 14 13 12 11 10 10 9 9 8 8 8 7 7 7 6 6 6 5 5 5 6 7 8 7 6 6 6
48 46 45 44 43 41 40 39 38 37 36 35 34 33 31 30 28 27 26 24 23 21 20 19 18 17 16 15 13 12 11 10 10 10 9 9 8 8 8 7 6 6 6 5 5 5 5 7 8 8 7 6
59 58 56 53 51 49 47 44 42 40 38 37 36 35 34 33 32 30 29 28 26 25 23 22 21 20 18 17 16 15 14 13 12 11 10 10 9 9 9 8 7 7 6 6 6 5 5 5 6 8 8 7
71 71 68 65 62 58 56 53 51 48 44 41 39 37 35 34 33 32 31 30 29 28 26 25 24 23 21 20 19 18 17 16 15 13 12 11 10 10 10 9 9 8 7 7 7 6 6 5 5 6 7 8
79 79 78 76 72 69 66 62 60 56 52 49 46 43 39 37 35 33 32 31 30 29 28 27 26 25 24 23 22 20 19 18 18 17 16 14 13 11 10 10 10 10 9 8 7 7 7 7 6 5 6 6
84 84 84 82 80 77 75 71 67 63 59 57 54 51 47 44 41 38 36 33 31 30 28 28 27 27 26 25 24 23 22 21 20 19 19 18 17 15 13 12 11 10 10 10 9 8 8 8 8 6 5 5
89 89 89 87 86 83 81 78 74 70 66 63 61 59 55 52 49 46 44 42 39 36 33 31 30 29 28 27 26 25 24 23 22 21 20 20 19 18 17 16 14 12 11 11 10 10 9 9 9 8 7 6
92 93 93 91 89 87 84 82 79 75 72 69 67 64 62 58 55 52 49 48 48 46 43 40 36 34 32 31 29 28 26 25 24 23 22 21 21 20 19 18 18 16 14 13 11 10 9 9 10 10 9 8
90 90 90 88 86 84 82 80 78 76 74 71 69 66 64 61 58 55 53 51 50 49 49 48 46 43 40 37 35 33 31 29 27 25 24 22 22 22 21 20 19 19 18 16 14 12 10 10 10 10 10 11
84 84 83 81 80 78 76 74 72 71 69 68 66 66 65 63 60 58 55 53 50 48 48 48 49 49 48 45 42 39 36 34 31 29 28 26 24 22 23 22 21 21 20 19 18 16 13 11 10 10 10 11
80 78 76 74 72 70 69 67 66 64 62 61 60 59 59 59 59 57 55 53 50 49 47 45 45 46 47 48 47 45 42 39 36 33 31 30 28 26 24 23 23 22 21 21 20 19 18 16 13 11 11 11
77 75 73 70 67 64 62 60 59 57 55 54 52 51 51 51 50 50 49 48 47 46 45 44 43 42 43 44 45 46 46 44 41 38 35 33 32 31 29 26 25 24 23 22 21 21 21 19 17 14 13 12
68 67 65 64 62 59 57 55 53 52 50 48 46 45 44 43 42 41 41 40 40 40 39 39 39 39 39 39 40 41 43 44 43 42 40 37 34 32 32 31 29 28 26 24 23 22 21 20 20 18 16 14
50 51 51 51 51 50 49 47 46 45 43 42 40 38 38 37 36 34 34 33 33 33 33 33 33 33 34 35 35 36 36 37 39 40 41 41 38 35 32 32 33 32 31 29 27 25 23 21 21 19 18 17
33 34 36 37 38 38 38 37 37 36 35 34 33 32 32 31 29 28 28 27 27 27 26 26 27 27 27 28 29 30 31 32 33 34 35 37 39 38 35 32 32 33 34 34 32 30 27 24 22 21 19 19
17 17 20 22 23 24 25 26 27 27 27 27 27 26 26 26 25 24 23 22 22 22 21 21 21 21 21 22 22 23 25 26 27 29 30 32 33 35 36 35 32 31 32 34 36 35 32 29 26 23 21 20
Wind_Speed
51 51 52 53 53 55 56 58 59 58 58 59 58 58 59 60 60 60 60 60 61 61 61 61 61 60 59 60 60 59 58 58 59 60 59 59 59 59 58 57 57 54 52 52 52 55 57 56 57 56 56 56
51 51 52 52 53 53 54 55 56 56 56 56 57 56 56 58 60 60 59 59 59 60 60 61 61 61 61 60 60 60 60 60 60 61 61 60 60 60 59 58 59 57 54 52 52 55 57 56 57 57 57 57
52 52 53 53 54 55 55 55 55 56 56 56 56 56 55 55 56 58 58 58 58 58 59 59 59 60 61 60 59 60 60 60 61 61 62 61 61 61 61 60 61 60 56 54 53 54 58 58 57 58 57 57
54 54 54 54 55 55 55 56 56 57 57 58 57 57 56 56 56 56 56 57 57 57 57 58 58 58 59 59 59 60 60 60 60 62 62 62 62 62 62 62 62 62 59 56 55 55 58 59 58 58 58 58
56 56 56 56 56 56 56 56 56 57 58 58 59 59 58 58 57 57 56 56 57 57 57 57 57 57 57 57 58 59 59 59 59 60 62 63 63 63 63 63 63 63 62 57 56 56 58 60 60 59 59 59
58 58 58 59 58 59 58 59 58 58 58 59 60 60 60 60 59 58 57 57 57 57 57 57 56 57 57 56 57 57 58 59 59 59 60 62 63 64 64 64 64 64 64 59 56 57 58 61 62 61 61 60
61 61 61 61 61 61 61 61 61 61 61 61 61 61 61 62 61 60 59 58 58 58 58 58 57 57 57 57 57 57 58 59 58 58 59 61 62 63 64 64 64 64 65 61 57 58 59 61 63 63 63 62
62 62 62 62 62 62 62 63 63 63 63 63 63 63 63 63 63 63 62 61 60 59 59 59 59 58 58 58 59 58 58 59 59 58 59 61 62 62 63 64 65 65 66 63 59 59 60 61 63 64 64 64
61 62 62 62 62 62 62 63 63 64 64 64 64 65 65 65 65 65 65 64 63 63 62 61 60 59 59 59 60 59 59 59 59 59 59 60 62 62 62 63 64 65 66 64 60 60 62 62 63 64 65 65
61 61 62 62 62 62 62 63 63 64 64 64 65 65 66 66 66 67 67 67 66 66 65 64 63 62 62 61 61 60 60 60 60 61 60 60 62 63 62 63 63 64 64 63 60 61 64 64 65 65 65 65
62 62 63 63 63 63 64 64 64 64 65 65 65 65 66 67 67 67 68 68 68 68 68 68 67 65 65 64 63 62 61 61 61 62 62 62 62 62 63 63 63 63 63 62 60 61 65 66 67 66 66 66
64 64 65 65 65 66 65 66 66 66 66 66 67 67 67 67 68 68 68 69 69 69 69 70 70 69 68 68 66 65 64 64 63 63 64 63 63 63 63 63 64 63 63 62 60 61 64 67 68 68 67 67
67 66 67 67 67 68 68 68 68 68 68 68 68 68 68 68 68 69 68 69 70 70 70 71 71 71 71 70 69 68 67 66 65 65 65 65 64 63 63 64 64 64 64 62 61 61 64 66 68 68 68 67
68 68 68 68 68 69 69 70 70 70 70 70 70 70 70 70 70 70 70 70 70 71 71 71 71 72 72 72 72 71 69 68 68 67 66 66 66 65 64 64 65 65 64 63 63 62 63 66 68 69 69 69
70 70 70 70 70 70 70 71 71 71 71 71 71 72 72 72 72 72 72 72 71 71 72 72 72 72 72 73 73 73 72 71 70 69 69 68 67 67 66 65 65 66 65 65 64 64 64 65 67 68 69 70
71 71 72 72 72 72 72 72 73 73 73 73 73 74 74 74 74 74 75 75 75 74 74 74 74 74 74 74 74 75 75 74 73 72 71 70 69 68 68 68 66 66 66 65 65 65 65 66 67 68 69 70
72 72 73 74 74 74 74 75 75 76 76 76 76 76 76 76 76 77 77 78 78 77 77 76 76 76 76 76 76 76 76 76 76 75 73 73 72 71 70 70 69 68 67 67 66 66 67 67 67 67 69 70
71 73 74 75 76 76 76 77 77 78 79 79 79 79 79 79 79 79 79 80 80 80 80 80 79 79 79 79 79 79 78 78 78 78 76 75 75 73 72 71 71 71 70 68 68 68 68 68 68 69 69 69
71 73 75 76 77 78 79 79 80 80 80 81 81 82 82 82 82 81 82 82 83 82 82 82 82 82 82 82 82 82 81 81 80 80 78 77 77 76 75 73 73 72 72 71 69 69 69 68 69 70 70 70
73 74 75 77 79 80 81 82 82 83 83 83 83 83 84 84 84 84 84 84 84 84 84 84 84 84 84 84 84 84 84 83 83 82 81 80 79 78 77 76 75 74 74 74 72 71 70 69 70 71 71 71
77 78 79 79 81 82 83 84 84 85 85 85 86 86 86 86 87 86 86 86 86 86 86 85 85 85 85 85 85 85 85 85 85 84 84 83 82 81 79 79 79 77 76 76 75 74 72 71 71 72 72 72
80 81 82 83 84 85 85 86 87 87 88 88 88 89 89 89 89 89 89 88 88 88 88 87 87 86 86 86 86 86 86 86 87 86 86 85 85 84 82 80 81 80 79 78 78 77 76 74 73 73 73 74
84 85 86 86 87 87 87 87 88 88 88 88 89 90 91 91 92 92 92 91 91 91 90 90 90 90 89 89 88 87 87 87 87 87 87 87 86 86 85 83 82 82 82 81 80 80 79 77 76 74 74 75
86 86 87 87 88 88 89 89 89 89 89 89 89 90 91 92 93 94 94 94 94 94 93 92 92 92 92 92 92 91 90 89 88 88 88 88 88 87 86 86 85 85 84 84 83 83 82 80 79 77 75 75
87 88 88 89 89 90 91 91 91 92 92 91 91 91 91 92 94 95 96 96 97 97 96 95 94 94 94 94 95 95 94 94 92 91 90 89 89 89 88 87 87 87 87 86 85 85 85 84 83 80 77 76
88 89 90 91 92 93 93 93 94 95 95 95 94 93 93 94 95 96 97 97 98 99 99 99 98 97 96 96 96 96 97 97 97 96 94 92 91 91 90 89 88 89 89 88 87 87 87 87 87 85 80 78
89 90 91 93 94 95 95 95 96 97 97 97 97 97 96 97 97 98 98 99 100 100 101 101 101 101 101 100 99 98 98 98 100 100 100 98 96 94 93 92 91 91 91 91 89 89 89 89 90 89 85 82
92 92 93 94 96 97 98 98 98 99 99 100 100 99 99 100 101 101 101 101 102 102 102 102 103 103 104 104 103 102 100 99 100 101 102 103 102 99 97 95 94 93 93 92 92 92 92 91 92 92 88 85
95 95 96 97 98 99 100 100 101 102 102 102 102 101 102 103 105 105 105 104 104 105 105 104 105 105 106 106 106 106 104 103 102 102 102 103 104 105 103 100 98 97 96 95 94 94 94 93 93 93 90 88
96 97 97 98 100 101 102 102 102 103 104 104 104 103 104 106 108 108 108 108 108 108 108 108 108 108 108 108 108 108 108 108 107 106 105 103 103 105 106 106 103 101 99 98 97 96 96 95 94 94 92 91
95 96 96 97 98 100 101 103 104 104 105 105 105 104 105 107 109 110 111 110 111 111 111 111 111 111 111 111 110 110 110 111 111 111 110 108 106 105 106 108 108 106 104 102 100 99 98 97 96 95 94 93
Wind_Direction
261 261 261 260 260 260 260 260 260 259 259 258 257 255 255 255 255 255 255 255 255 255 254 254 254 254 254 254 254 254 254 254 254 254 253 253 253 252 252 251 250 247 247 246 245 246 246 245 246 246 248 249
261 260 260 260 259 259 259 259 259 259 259 258 258 256 255 254 254 254 254 254 254 254 254 254 254 254 253 253 254 253 253 254 253 253 253 253 253 252 252 251 251 248 247 247 245 246 246 245 245 245 246 247
262 261 260 259 259 258 258 258 258 258 258 258 257 257 256 254 253 253 254 254 254 253 253 253 253 253 253 252 252 252 252 253 253 253 253 253 253 252 252 251 251 249 247 248 247 247 248 246 244 244 244 245
262 262 261 260 259 258 258 257 257 257 257 257 257 256 256 255 254 253 253 253 254 254 253 253 252 252 253 252 252 251 251 251 252 252 252 252 252 252 252 251 251 250 248 248 248 247 249 248 246 244 244 244
262 262 262 261 260 259 258 258 257 256 256 256 256 255 255 255 254 253 252 252 253 254 254 253 252 252 252 252 251 251 250 250 251 251 251 251 251 251 251 251 251 250 248 247 248 247 248 249 247 245 244 243
262 262 261 261 261 260 260 259 258 257 256 256 255 255 254 254 254 253 252 252 251 252 253 254 253 252 252 251 251 251 250 249 249 250 251 250 250 250 250 250 250 250 249 247 247 246 246 247 247 246 245 243
264 263 262 261 261 261 260 260 260 258 257 257 256 255 255 254 253 253 252 251 251 250 251 252 252 252 252 251 251 250 250 249 249 249 250 250 250 249 249 249 249 250 249 247 246 246 245 246 247 246 246 244
265 264 263 262 262 261 260 260 260 259 259 258 257 256 255 255 254 253 252 251 251 250 249 249 250 251 252 251 251 250 250 250 249 248 249 250 249 249 249 249 249 249 249 247 247 246 245 245 246 246 245 245
263 263 263 262 262 261 260 260 259 259 259 258 258 257 256 255 254 254 253 252 251 250 249 249 248 249 250 251 251 251 251 250 250 249 249 249 249 248 248 248 248 248 248 247 246 246 245 244 245 245 245 244
261 261 261 261 260 260 260 259 258 258 257 257 257 257 257 256 255 254 253 252 252 251 250 249 248 247 247 248 249 250 251 250 250 249 249 249 249 249 248 248 248 248 248 247 246 246 246 245 245 244 244 243
260 260 259 259 258 258 258 258 257 257 256 256 255 255 255 255 255 255 254 253 252 251 250 249 248 247 247 246 247 248 249 249 249 249 249 249 249 249 248 248 248 248 248 247 246 246 247 246 245 244 243 243
260 259 259 258 257 257 256 256 256 256 255 255 254 254 254 254 254 254 254 253 253 252 251 250 249 248 247 246 245 246 246 247 248 249 248 248 248 249 248 248 248 248 248 247 246 246 246 247 246 245 244 243
261 259 258 257 257 256 255 254 254 253 253 253 253 253 253 253 253 253 253 253 253 252 251 251 250 249 248 246 245 245 245 245 246 247 248 248 247 247 248 248 248 247 247 247 246 246 246 246 246 245 244 242
261 260 259 257 256 256 255 254 253 252 252 251 251 251 251 251 251 251 252 252 252 252 252 251 251 251 250 249 247 245 244 244 245 246 247 247 247 247 247 248 248 247 247 246 246 246 246 246 246 246 244 243
260 259 258 258 257 256 255 254 254 253 252 251 250 250 250 250 250 250 250 250 250 251 251 251 251 251 251 251 250 248 246 245 244 244 245 246 247 247 246 246 247 247 247 246 246 246 246 246 246 246 245 244
258 257 257 257 256 256 255 255 254 253 252 252 251 250 249 249 249 249 248 248 248 249 249 250 250 250 250 250 251 251 249 247 245 244 245 245 245 246 246 245 245 246 246 246 246 246 246 246 245 245 245 245
256 255 255 255 255 254 254 254 254 253 253 252 251 251 250 249 249 248 248 248 248 247 247 248 249 250 250 250 249 250 250 250 248 246 245 245 245 245 245 245 245 245 245 245 246 246 246 246 245 245 245 245
255 255 255 254 254 254 253 253 253 253 252 252 252 251 250 250 249 249 248 248 248 247 247 247 247 247 248 249 249 249 249 250 250 249 247 246 246 245 245 245 245 245 244 244 245 246 246 247 246 245 244 244
255 255 255 255 254 254 253 253 252 252 252 252 252 251 251 251 250 249 249 248 248 248 247 247 246 246 246 246 247 248 248 248 249 250 249 248 247 246 245 245 244 245 245 243 243 244 246 247 247 246 245 244
255 255 255 255 255 255 255 254 254 253 253 252 252 252 252 252 251 251 250 250 249 249 248 247 246 245 245 245 245 246 247 247 248 248 249 249 248 248 247 246 245 244 245 245 243 243 244 246 246 246 246 245
255 256 256 256 256 256 256 256 256 255 255 254 254 253 253 252 252 252 251 251 251 250 249 249 248 247 246 245 244 245 245 245 246 246 247 248 248 248 248 248 247 245 245 244 244 243 243 244 245 246 246 246
257 258 258 258 258 258 258 258 257 257 257 256 256 255 254 253 252 252 252 251 251 251 250 250 249 249 248 247 246 245 244 245 245 245 245 246 247 247 247 247 248 248 246 245 244 244 243 243 244 245 246 245
259 260 260 260 259 259 258 257 257 257 257 257 256 256 256 255 253 252 251 251 250 250 250 250 250 249 249 249 248 247 246 245 244 244 244 244 244 246 246 246 246 247 247 247 246 245 244 244 244 244 245 245
262 262 261 260 260 259 258 257 257 256 256 255 255 255 256 256 255 254 252 251 250 249 249 249 249 249 249 249 249 249 248 247 245 244 244 244 244 244 244 245 245 245 246 247 247 246 246 245 244 244 244 245
265 264 263 262 261 260 259 258 257 256 255 255 255 254 255 255 255 255 254 253 251 250 248 247 247 248 248 249 249 249 249 249 248 246 245 244 244 244 244 244 244 244 244 245 245 246 246 246 246 244 244 244
267 266 265 264 263 262 261 260 259 258 257 256 255 254 254 254 254 254 254 253 253 251 250 248 247 246 246 246 247 248 249 249 249 248 247 245 245 244 244 243 243 244 244 243 244 244 245 245 246 245 244 244
271 270 269 268 267 265 264 263 262 261 260 258 257 256 255 255 254 254 254 253 253 252 252 250 249 247 246 245 245 245 247 248 249 249 249 247 246 244 244 243 243 243 243 243 243 243 243 243 245 245 245 245
272 271 270 270 269 268 267 266 265 264 263 262 261 260 259 259 258 256 255 254 254 253 252 252 250 249 248 246 245 244 244 245 247 248 249 249 248 246 244 243 243 243 243 243 243 242 242 242 243 244 244 245
274 272 271 270 270 269 269 268 267 266 265 264 263 263 263 262 261 260 258 257 256 255 254 253 252 251 249 248 247 245 244 243 243 244 246 248 249 248 246 244 243 243 243 243 243 243 243 242 242 243 243 243
276 274 272 271 270 269 269 268 268 268 267 266 265 265 264 264 263 263 261 260 259 258 257 256 254 253 252 250 249 247 245 244 242 242 242 244 246 248 248 246 244 243 243 243 243 243 243 243 243 243 242 242
278 275 273 272 271 270 269 268 267 267 267 267 266 266 266 265 265 264 263 262 261 261 260 258 257 256 255 253 251 250 248 246 244 243 242 241 242 243 246 247 246 244 243 242 242 242 243 243 243 242 242 241